Change the Weather History Date:

Thursday, March 27, 2014

  Actual Average Record
Temperature  
Mean Temperature 42 °F 39 °F  
Max Temperature 49 °F 46 °F 81 °F (1945)
Min Temperature 35 °F 31 °F 2 °F (1965)
Degree Days  
Heating Degree Days 23 26  
Month to date heating degree days 1007 828  
Since 1 July heating degree days 6663 5808  
Cooling Degree Days 0 0  
Month to date cooling degree days 0 0  
Year to date cooling degree days 0 0  
Moisture  
Dew Point 35 °F    
Average Humidity 63    
Maximum Humidity 85    
Minimum Humidity 40    
Precipitation  
Precipitation 0.46 in 0.09 in 1.26 in (1908)
Month to date precipitation 0.97 1.90  
Year to date precipitation 3.71 5.31  
Snow  
Snow T in 0.10 in 10.00 in (1887)
Month to date snowfall 6.2 6.4  
Since 1 July snowfall 63.0 44.2  
Snow Depth 0.00 in    
Sea Level Pressure  
Sea Level Pressure 29.67 in    
Wind  
Wind Speed 13 mph (South)    
Max Wind Speed 23 mph    
Max Gust Speed 29 mph    
Visibility 6 miles    
Events Rain , Snow    
T = Trace of Precipitation, MM = Missing Value Source: NWS Daily Summary

Daily Weather History Graph

Daily Weather History Graph

Search for Another Location

Airport or City:

Trip Planner

Search our weather history database for the weather conditions in past years. The results will help you decide how hot, cold, wet, or windy it might be!

Date:

Astronomy

Mar. 27, 2014 Rise Set
Actual Time 6:42 AM CDT 7:12 PM CDT
Civil Twilight 6:14 AM CDT 7:40 PM CDT
Nautical Twilight 5:40 AM CDT 8:14 PM CDT
Astronomical Twilight 5:05 AM CDT 8:48 PM CDT
Moon 4:38 AM CDT (3/27) 3:55 PM CDT (3/27)
Length of Visible Light 13h 26m
Length of Day
12h 29m
Waning Crescent, 13% of the Moon is Illuminated
Mar 27
Waning Crescent
Mar 30
New
Apr 7
First Quarter
Apr 15
Full
Apr 22
Last Quarter

Hourly Weather History & Observations

Time (CDT) Temp. Windchill Dew Point Humidity Pressure Visibility Wind Dir Wind Speed Gust Speed Precip Events Conditions
12:52 AM 37.9 °F 29.6 °F 18.0 °F 45% 29.94 in 10.0 mi South 13.8 mph - N/A   Mostly Cloudy
1:52 AM 39.0 °F 31.8 °F 18.0 °F 43% 29.92 in 10.0 mi SSW 11.5 mph 20.7 mph N/A   Mostly Cloudy
2:52 AM 39.9 °F 31.1 °F 19.0 °F 43% 29.89 in 10.0 mi SSW 17.3 mph 20.7 mph N/A   Overcast
3:52 AM 39.9 °F 30.5 °F 19.9 °F 45% 29.88 in 10.0 mi SW 19.6 mph 27.6 mph N/A   Overcast
4:52 AM 39.0 °F 29.9 °F 23.0 °F 53% 29.86 in 10.0 mi SSW 17.3 mph 26.5 mph N/A   Overcast
5:24 AM 37.0 °F 27.7 °F 28.0 °F 70% 29.84 in 10.0 mi SSW 16.1 mph 24.2 mph 0.00 in Rain Light Rain
5:52 AM 36.0 °F 26.3 °F 30.0 °F 79% 29.86 in 8.0 mi SSW 16.1 mph 25.3 mph 0.00 in Rain Light Rain
6:21 AM 36.0 °F 27.5 °F 30.9 °F 82% 29.83 in 10.0 mi South 12.7 mph - 0.00 in   Overcast
6:52 AM 36.0 °F 27.1 °F 30.0 °F 79% 29.85 in 10.0 mi SSW 13.8 mph - 0.00 in   Overcast
7:01 AM 36.0 °F 27.5 °F 30.0 °F 79% 29.82 in 10.0 mi South 12.7 mph 27.6 mph N/A   Overcast
7:34 AM 36.0 °F 28.0 °F 30.0 °F 79% 29.81 in 8.0 mi South 11.5 mph - N/A   Overcast
7:52 AM 36.0 °F 28.0 °F 30.9 °F 82% 29.83 in 4.0 mi South 11.5 mph - 0.00 in Snow Light Snow
8:52 AM 36.0 °F 28.0 °F 32.0 °F 86% 29.81 in 4.0 mi South 11.5 mph 19.6 mph 0.01 in   Light Drizzle
9:06 AM 36.0 °F 26.7 °F 33.1 °F 89% 29.78 in 5.0 mi South 15.0 mph - 0.00 in Rain Light Rain
9:52 AM 37.0 °F 28.1 °F 33.1 °F 86% 29.79 in 5.0 mi South 15.0 mph 20.7 mph 0.00 in   Overcast
10:52 AM 37.9 °F 29.2 °F 34.0 °F 86% 29.78 in 5.0 mi South 15.0 mph 24.2 mph N/A   Overcast
11:52 AM 39.0 °F 29.3 °F 35.1 °F 86% 29.74 in 5.0 mi South 19.6 mph 27.6 mph 0.00 in   Overcast
12:17 PM 39.0 °F 29.6 °F 36.0 °F 89% 29.71 in 3.0 mi South 18.4 mph 24.2 mph 0.00 in Rain Light Rain
12:31 PM 39.0 °F 31.4 °F 36.0 °F 89% 29.70 in 3.0 mi South 12.7 mph 20.7 mph 0.00 in Rain Light Rain
12:52 PM 39.9 °F 32.1 °F 36.0 °F 86% 29.71 in 6.0 mi South 13.8 mph - 0.00 in   Overcast
1:48 PM 39.2 °F 32.0 °F 35.6 °F 87% 29.66 in 2.0 mi South 11.5 mph - 0.00 in Rain Light Rain
1:52 PM 39.9 °F 31.1 °F 36.0 °F 86% 29.67 in 2.0 mi SSW 17.3 mph 24.2 mph 0.00 in Rain Light Rain
2:23 PM 39.9 °F 32.9 °F 36.0 °F 86% 29.64 in 2.0 mi South 11.5 mph 20.7 mph 0.00 in   Overcast
2:52 PM 39.0 °F 31.0 °F 37.0 °F 93% 29.63 in 2.0 mi South 13.8 mph - 0.00 in Rain Light Rain
3:34 PM 39.9 °F 32.5 °F 37.9 °F 93% 29.59 in 2.0 mi South 12.7 mph - 0.01 in Rain Light Rain
3:43 PM 39.9 °F 33.4 °F 37.9 °F 93% 29.59 in 5.0 mi South 10.4 mph - 0.01 in   Overcast
3:52 PM 39.9 °F 32.9 °F 37.9 °F 93% 29.60 in 4.0 mi South 11.5 mph - 0.02 in Rain Light Rain
4:52 PM 41.0 °F 35.8 °F 39.0 °F 93% 29.57 in 2.0 mi South 8.1 mph - 0.00 in   Overcast
5:07 PM 42.1 °F 37.1 °F 39.9 °F 92% 29.55 in 1.5 mi South 8.1 mph - 0.00 in Rain Light Rain
5:52 PM 43.0 °F 36.8 °F 41.0 °F 93% 29.54 in 1.5 mi South 11.5 mph - 0.02 in Rain Light Rain
6:15 PM 43.0 °F 36.0 °F 41.0 °F 93% 29.50 in 2.5 mi South 13.8 mph - 0.00 in Rain Light Rain
6:40 PM 43.0 °F 36.4 °F 41.0 °F 93% 29.49 in 4.0 mi South 12.7 mph - 0.01 in   Overcast
6:48 PM 44.6 °F 38.4 °F 41.0 °F 87% 29.49 in 5.0 mi South 12.7 mph - 0.01 in   Overcast
6:52 PM 44.1 °F 38.1 °F 41.0 °F 89% 29.50 in 5.0 mi South 11.5 mph - 0.01 in   Overcast
7:47 PM 42.8 °F 37.5 °F 39.2 °F 87% 29.45 in 5.0 mi SSE 9.2 mph - 0.00 in Rain Light Rain
7:52 PM 42.1 °F 36.6 °F 39.9 °F 92% 29.48 in 4.0 mi South 9.2 mph - 0.00 in Rain Light Rain
8:04 PM 42.1 °F 35.7 °F 39.9 °F 92% 29.46 in 4.0 mi South 11.5 mph - 0.02 in Rain Light Rain
8:52 PM 45.0 °F 39.7 °F 43.0 °F 93% 29.46 in 5.0 mi South 10.4 mph - 0.02 in   Overcast
9:52 PM 48.0 °F - 45.0 °F 89% 29.45 in 5.0 mi SSW 11.5 mph - 0.18 in Rain Light Rain
10:52 PM 48.9 °F - 45.0 °F 86% 29.44 in 9.0 mi South 10.4 mph - 0.01 in   Light Drizzle
11:52 PM 48.9 °F - 46.0 °F 90% 29.42 in 4.0 mi SSW 9.2 mph - 0.03 in Rain Light Rain
11:59 PM 48.9 °F - 46.0 °F 90% 29.41 in 4.0 mi SSW 10.4 mph - 0.01 in Rain Light Rain